Location: Les Chemineaux
(47.3024°N, 1.5104°E)
Time: 15:23:52
(UTC+00:00)

USA 59 Rocket - Pass Details

Date: 19 May 2025
Orbit: 373 x 1696 km, 63.3° (Epoch: 17 June)

Event Time Altitude Azimuth Distance (km) Brightness Sun altitude
Exits shadow 23:55:52 16° 291° (WNW) 1,126 1.6 -22.7°
Maximum altitude 23:57:02 20° 321° (NW) 975 1.6 -22.7°
Drops below altitude 10° 23:59:19 10° 12° (NNE) 1,391 3.0 -22.7°
Sets 00:01:39 0° 31° (NNE) 2,257 4.0 -22.7°
